Location: *
(34.6903°N, 135.5184°E)
Time: 07:52:39
(UTC+00:00)

Yuri Rocket - Pass Details

Date: 22 September 2019
Orbit: 568 x 1914 km, 28.2° (Epoch: 18 October)

Event Time Altitude Azimuth Distance (km) Brightness Sun altitude
Exits shadow 18:32:05 39° 153° (SSE) 1,143 4.3 -27.7°
Drops below altitude 10° 18:36:58 10° 108° (ESE) 2,639 6.9 -26.8°
Sets 18:40:10 0° 102° (ESE) 3,818 8.0 -26.2°
